This demonstration page uses our WeatherBlox Daily Observations layout. Learn more.

Left ArrowRight Arrow

Hourly Observations for July 8, 2022

Temp ( °F °C ) Dew Point ( °F °C ) Humidity (%) Winds ( mph kmh ) Pressure ( in mb ) Visibility ( mi km ) Precip ( " mm )
12:59 am 00:59 Mostly Cloudy 74 23.3 70 21.1 88 88 E 7 11 29.98 1015 10 16 0.00 0.00
1:59 am 01:59 Mostly Cloudy 74 23.3 70 21.1 88 88 E 7 11 29.98 1015 10 16 0.00 0.00
2:59 am 02:59 Mostly Cloudy 73 22.8 70 21.1 90 90 E 6 9 29.98 1015 10 16 0.00 0.00
3:59 am 03:59 Cloudy 73 22.8 71 21.7 94 94 ESE 6 9 29.98 1015 10 16 0.00 0.00
4:59 am 04:59 Cloudy 72 22.2 70 21.1 94 94 E 8 13 29.98 1015 10 16 0.00 0.00
5:59 am 05:59 Cloudy 72 22.2 70 21.1 94 94 ENE 8 13 30.00 1016 10 16 0.00 0.00
6:28 am 06:28 Cloudy 72 22.2 70 21.1 94 94 E 9 15 30.01 1016 10 16 0.00 0.00
6:43 am 06:43 Cloudy 72 22.2 70 21.1 94 94 E 8 13 30.01 1016 10 16 0.00 0.00
6:59 am 06:59 Cloudy 73 22.8 70 21.1 90 90 E 10 17 30.00 1016 10 16 0.00 0.00
7:59 am 07:59 Mostly Cloudy 73 22.8 70 21.1 90 90 E 7 11 30.02 1017 10 16 0.00 0.00
8:59 am 08:59 Mostly Cloudy 75 23.9 70 21.1 84 84 ENE 9 15 30.03 1017 10 16 0.00 0.00
9:59 am 09:59 Mostly Cloudy 77 25 69 20.6 77 77 E 6 9 30.05 1018 10 16 0.00 0.00
10:25 am 10:25 Mostly Cloudy 77 25 69 20.6 77 77 ENE 6 9 30.05 1018 10 16 0.00 0.00
10:59 am 10:59 Cloudy 77 25 69 20.6 77 77 ENE 8 13 30.06 1018 10 16 0.00 0.00
11:35 am 11:35 Mostly Cloudy 79 26.1 69 20.6 72 72 NE 7 11 30.06 1018 10 16 0.00 0.00
11:59 am 11:59 Mostly Cloudy 79 26.1 69 20.6 72 72 NE 5 7 30.06 1018 10 16 0.00 0.00
12:59 pm 12:59 Mostly Cloudy 81 27.2 68 20 65 65 ENE 8 13 30.05 1018 10 16 0.00 0.00
1:59 pm 13:59 Partly Cloudy 82 27.8 69 20.6 65 65 E 9 15 30.03 1017 10 16 0.00 0.00
2:59 pm 14:59 Partly Cloudy 84 28.9 68 20 59 59 NE 9 15 30.02 1017 10 16 0.00 0.00
3:59 pm 15:59 Partly Cloudy 84 28.9 68 20 59 59 NE 10 17 30.00 1016 10 16 0.00 0.00
4:59 pm 16:59 Partly Cloudy 82 27.8 69 20.6 65 65 ENE 13 20 29.99 1016 10 16 0.00 0.00
5:59 pm 17:59 Mostly Cloudy 82 27.8 72 22.2 72 72 ENE 12 19 29.99 1016 10 16 0.00 0.00
6:59 pm 18:59 Mostly Cloudy 82 27.8 72 22.2 72 72 E 12 19 30.00 1016 10 16 0.00 0.00
7:59 pm 19:59 Mostly Cloudy 79 26.1 72 22.2 79 79 SE 8 13 29.99 1016 10 16 0.00 0.00
8:59 pm 20:59 Mostly Cloudy 78 25.6 72 22.2 82 82 SE 7 11 30.01 1016 10 16 0.00 0.00
9:59 pm 21:59 Mostly Cloudy 78 25.6 72 22.2 82 82 SE 7 11 30.01 1016 10 16 0.00 0.00
10:59 pm 22:59 Mostly Cloudy 78 25.6 73 22.8 85 85 SE 5 7 30.01 1016 10 16 0.00 0.00
11:59 pm 23:59 Mostly Cloudy 78 25.6 73 22.8 85 85 Calm 29.99 1016 10 16 0.00 0.00

Powered by AerisWeather